Wolf Point, MT

10:36 AM MST on February 24, 2017 (GMT -0700)
Clayton

Weather History for KOLF - May, 2012

Change the Weather History Date:

Friday, May 4, 2012

  Actual Average Record
Temperature  
Mean Temperature 60 °F -  
Max Temperature 72 °F 67 °F 86 °F (2016)
Min Temperature 47 °F 34 °F 16 °F (2002)
Degree Days  
Heating Degree Days 5    
Cooling Degree Days 0    
Growing Degree Days 10 (Base 50)    
Moisture  
Dew Point 46 °F    
Average Humidity 72    
Maximum Humidity 96    
Minimum Humidity 34    
Precipitation  
Precipitation 0.05 in 0.03 in 0.42 in (2007)
Month to date precipitation 0.09 0.14  
Year to date precipitation 1.30 2.06  
Sea Level Pressure  
Sea Level Pressure 29.85 in    
Wind  
Wind Speed 9 mph (North)    
Max Wind Speed 15 mph    
Max Gust Speed -    
Visibility 10 miles    
Events Rain , Thunderstorm    
T = Trace of Precipitation, MM = Missing Value Source: NWS Daily Summary

Daily Weather History Graph

Daily Weather History Graph

Search for Another Location

Airport or City:

Trip Planner

Search our weather history database for the weather conditions in past years. The results will help you decide how hot, cold, wet, or windy it might be!

Date:

Astronomy

May. 04, 2012 Rise Set
Actual Time 5:38 AM MDT 8:20 PM MDT
Civil Twilight 5:02 AM MDT 8:56 PM MDT
Nautical Twilight 4:17 AM MDT 9:41 PM MDT
Astronomical Twilight 3:25 AM MDT 10:35 PM MDT
Moon 6:59 PM MDT (5/4) 4:27 AM MDT (5/4)
Length of Visible Light 15h 53m
Length of Day
14h 42m
Waxing Gibbous, 97% of the Moon is Illuminated
May 4
Waxing Gibbous
May 5
Full
May 12
Last Quarter
May 20
New
May 28
First Quarter

Hourly Weather History & Observations

Time (MDT) Temp. Dew Point Humidity Pressure Visibility Wind Dir Wind Speed Gust Speed Precip Events Conditions
12:53 AM 51.1 °F 46.9 °F 86% 29.83 in 10.0 mi ENE 15.0 mph - 0.01 in Rain Light Rain
1:53 AM 50.0 °F 46.9 °F 89% 29.82 in 10.0 mi ENE 13.8 mph - 0.00 in   Mostly Cloudy
2:53 AM 50.0 °F 46.9 °F 89% 29.82 in 10.0 mi East 8.1 mph - 0.00 in Rain Light Rain
3:14 AM 48.2 °F 46.4 °F 93% 29.80 in 5.0 mi ENE 10.4 mph - 0.05 in Rain , Thunderstorm Light Rain
3:28 AM 48.2 °F 46.4 °F 93% 29.80 in 9.0 mi NE 10.4 mph - 0.05 in Thunderstorm Mostly Cloudy
3:49 AM 48.2 °F 46.4 °F 93% 29.79 in 9.0 mi ENE 11.5 mph - 0.05 in   Mostly Cloudy
3:53 AM 48.0 °F 46.9 °F 96% 29.79 in 9.0 mi ENE 10.4 mph - 0.05 in   Mostly Cloudy
4:53 AM 48.0 °F 46.0 °F 93% 29.81 in 9.0 mi East 9.2 mph - N/A   Mostly Cloudy
5:12 AM 48.2 °F 46.4 °F 93% 29.80 in 8.0 mi ENE 5.8 mph - N/A   Mostly Cloudy
5:53 AM 50.0 °F 48.0 °F 93% 29.81 in 8.0 mi NE 3.5 mph - N/A   Overcast
6:53 AM 51.1 °F 48.9 °F 92% 29.82 in 9.0 mi NNE 4.6 mph - N/A   Overcast
7:53 AM 54.0 °F 50.0 °F 86% 29.83 in 10.0 mi NNE 4.6 mph - N/A   Overcast
8:02 AM 53.6 °F 50.0 °F 88% 29.83 in 10.0 mi Calm Calm - N/A   Overcast
8:53 AM 55.9 °F 51.1 °F 84% 29.84 in 10.0 mi Variable 4.6 mph - N/A   Mostly Cloudy
9:39 AM 57.2 °F 51.8 °F 82% 29.84 in 10.0 mi WNW 6.9 mph - N/A   Mostly Cloudy
9:49 AM 57.2 °F 51.8 °F 82% 29.85 in 10.0 mi WNW 6.9 mph - N/A   Mostly Cloudy
9:53 AM 59.0 °F 52.0 °F 78% 29.85 in 10.0 mi West 6.9 mph - N/A   Overcast
10:53 AM 61.0 °F 50.0 °F 67% 29.86 in 10.0 mi NNW 9.2 mph - N/A   Scattered Clouds
11:53 AM 63.0 °F 50.0 °F 63% 29.87 in 10.0 mi NNW 5.8 mph - N/A   Clear
12:53 PM 66.9 °F 46.0 °F 47% 29.86 in 10.0 mi WNW 9.2 mph - N/A   Partly Cloudy
1:53 PM 66.9 °F 44.1 °F 44% 29.85 in 10.0 mi WNW 5.8 mph - N/A   Mostly Cloudy
2:53 PM 66.9 °F 44.1 °F 44% 29.85 in 10.0 mi North 4.6 mph - N/A   Partly Cloudy
3:53 PM 71.1 °F 42.1 °F 35% 29.84 in 10.0 mi SW 11.5 mph - N/A   Partly Cloudy
4:53 PM 71.1 °F 41.0 °F 34% 29.85 in 10.0 mi SW 8.1 mph - N/A   Scattered Clouds
5:53 PM 69.1 °F 41.0 °F 36% 29.86 in 10.0 mi West 6.9 mph - N/A   Clear
6:53 PM 68.0 °F 39.0 °F 35% 29.87 in 10.0 mi West 9.2 mph - N/A   Clear
7:53 PM 64.0 °F 39.0 °F 40% 29.88 in 10.0 mi WNW 4.6 mph - N/A   Clear
8:53 PM 57.0 °F 39.9 °F 53% 29.90 in 10.0 mi NW 4.6 mph - N/A   Clear
9:53 PM 51.1 °F 39.9 °F 66% 29.93 in 10.0 mi North 3.5 mph - N/A   Clear
10:53 PM 50.0 °F 43.0 °F 77% 29.94 in 10.0 mi ENE 6.9 mph - N/A   Clear
11:53 PM 48.9 °F 46.0 °F 90% 29.93 in 10.0 mi ENE 6.9 mph - N/A   Clear